Regional Weather Roundup
Issued by NWS

Home | Current Version | Previous Version | Text Only | Print | Product List | Glossary On
Versions: 1 2 3 4 5 6 7 8 9 10 11 12 13 14 15 16 17 18 19 20 21 22 23 24 25 26 27 28 29 30 31 32 33 34 35 36 37 38 39 40 41 42 43 44 45 46 47 48 49 50
000
ASUS43 KDTX 221010
RWRMI
MICHIGAN HOURLY REGIONAL WEATHER ROUNDUP
NATIONAL WEATHER SERVICE DETROIT/PONTIAC MI
600 AM EDT WED OCT 22 2014

NOTE: "FAIR" INDICATES FEW OR NO CLOUDS BELOW 12,000 FEET WITH NO
SIGNIFICANT WEATHER AND/OR OBSTRUCTION TO VISIBILITY.

MIZ047>049-052>055-059>063-066>070-074>076-081>083-221100-
SOUTHEAST LOWER MICHIGAN

CITY           SKY/WX    TMP DP  RH WIND       PRES   REMARKS
ADRIAN         CLOUDY    43  37  79 NE9       30.27R
ALMA           CLOUDY    40  35  83 N5        30.32R
ANN ARBOR      CLOUDY    44  36  73 N12       30.26R
BAD AXE        CLOUDY    44  40  85 NE7       30.30R
DETROIT CITY   CLOUDY    48  39  71 N10       30.25R
DETROIT        CLOUDY    46  39  76 N8        30.26R
FLINT          CLOUDY    45  37  73 N9        30.30R
GROSSE ILE     CLOUDY    46  39  76 NW7       30.24R
HILLSDALE      CLOUDY    41  38  90 N5        30.27R
HOWELL         CLOUDY    41  37  85 N5        30.27R

CITY           SKY/WX    TMP DP  RH WIND       PRES   REMARKS
JACKSON        CLOUDY    38  35  89 NW6       30.28R
LAMBERTVILLE   CLOUDY    45  37  76 NW6       30.26R
LANSING        CLOUDY    39  35  86 N3        30.31R
LAPEER         NOT AVBL
MASON          CLOUDY    39  36  89 N6        30.28S
MONROE         CLOUDY    45  39  81 N6        30.24R
MT. CLEMENS    CLOUDY    46  40  81 N13       30.23R
PONTIAC        CLOUDY    43  37  79 N9        30.25R
PORT HOPE        N/A     46  39  76 NE14      30.28R
PORT HURON     CLOUDY    45  39  81 N8        30.25R
TRI CITIES     CLOUDY    43  36  76 N8        30.31R
YPSILANTI      CLOUDY    48  38  68 N9        30.26R
$$
MIZ043>046-050>051-056>058-064>065-071>073-077>080-221100-
SOUTHWEST LOWER MICHIGAN

CITY           SKY/WX    TMP DP  RH WIND       PRES   REMARKS
BATTLE CREEK   MOCLDY    34  31  88 N3        30.31R
BENTON HARBOR  CLEAR     30  30 100 CALM      30.31R
BIG RAPIDS     CLEAR     29  29 100 CALM      30.32S
COLDWATER      CLOUDY    38  36  93 CALM      30.29R
HOLLAND        CLEAR     34  30  85 CALM      30.33R
GRAND RAPIDS   CLEAR     33  30  88 CALM      30.32R
KALAMAZOO      CLEAR     31  28  89 NW3       30.31R
MARSHALL       CLOUDY    33  32  96 CALM      30.29R
MUSKEGON       CLEAR     30  26  85 CALM      30.34R
$$
MIZ016>042-221100-
NORTHERN LOWER MICHIGAN

CITY           SKY/WX    TMP DP  RH WIND       PRES   REMARKS
ALPENA         CLOUDY    40  34  79 NE5       30.34R
BEAVER ISLAND    N/A     30  30  99 CALM      30.37R FOG
BELLAIRE       CLOUDY    27  26  96 CALM      30.38R
CADILLAC       CLEAR     21  20  97 NW3       30.32R
CHARLEVOIX     CLEAR     32  31  97 S3        30.40R
FRANKFORT      SUNNY     28  25  89 CALM      30.36R
GAYLORD        CLOUDY    33  28  81 E3        30.33R
GRAYLING       CLOUDY    34  32  93 CALM      30.34S
HARBOR SPRINGS CLEAR     31  29  94 CALM      30.37R
HOUGHTON LAKE  CLOUDY    34  31  88 CALM      30.34R
MANISTEE       CLEAR     27  21  80 CALM      30.36R
OSCODA         CLOUDY    44  37  77 NE5       30.31R
PELLSTON       PTCLDY    23  21  92 NW3       30.37R
TRAVERSE CITY  CLEAR     28  25  88 CALM      30.36R
$$
MIZ007>008-015-221100-
EASTERN UPPER MICHIGAN

CITY           SKY/WX    TMP DP  RH WIND       PRES   REMARKS
KINROSS        CLEAR     28  28 100 CALM      30.38S
MACKINAC ISLAN CLOUDY    37  32  81 CALM      30.36S
NEWBERRY       CLEAR     28  27  96 E3        30.37R
S. S. MARIE    CLEAR     28  25  88 NE5       30.37R
$$
MIZ004>006-011>014-085-221100-
CENTRAL UPPER MICHIGAN

CITY           SKY/WX    TMP DP  RH WIND       PRES   REMARKS
MANISTIQUE     PTCLDY    27  26  98 CALM      30.36R
ESCANABA       PTCLDY    28  25  86 CALM      30.35R
MENOMINEE      CLEAR     30  27  86 NW5       30.34R
SAWYER-GWINN   PTCLDY    25  23  93 CALM      30.32S
$$
MIZ001>003-009>011-084-221100-
WESTERN UPPER MICHIGAN

CITY           SKY/WX    TMP DP  RH WIND       PRES   REMARKS
IRON MOUNTAIN  FOG       24  22  91 CALM      30.32S VSB 3/4
HOUGHTON       CLEAR     29  26  89 SE3       30.30R
COPPER HARBOR    N/A     40  32  73 SW9       30.31R
IRONWOOD       CLEAR     37  34  87 S8        30.24R
$$

ABBREVIATIONS USED IN REMARKS
   TC - TEMPERATURE IN CELSIUS
  WCI - WIND CHILL INDEX
   HX - HEAT INDEX
  VSB - VISIBILITY




USA.gov is the U.S. government's official web portal to all federal, state and local government web resources and services.